Regional Weather Roundup
Issued by NWS

Home | Current Version | Previous Version | Graphics & Text | Print | Product List | Glossary On
Versions: 1 2 3 4 5 6 7 8 9 10 11 12 13 14 15 16 17 18 19 20 21 22 23 24 25 26 27 28 29 30 31 32 33 34 35 36 37 38 39 40 41 42 43 44 45 46 47 48 49 50
317
ASUS43 KMPX 220810
RWRMN
WEATHER ROUNDUP FOR MINNESOTA
NATIONAL WEATHER SERVICE TWIN CITIES/CHANHASSEN MN
300 AM CDT SAT JUL 22 2017


NOTE: "FAIR" INDICATES FEW OR NO CLOUDS BELOW 12,000 FEET WITH NO
SIGNIFICANT WEATHER AND/OR OBSTRUCTIONS TO VISIBILITY. N/A MEANS
CURRENT SKY AND/OR WEATHER CONDITIONS ARE NOT AVAILABLE.

MNZ060>063-068>070-220900-
   Twin Cities Metro

CITY           SKY/WX    TMP DP  RH WIND       PRES   REMARKS
TWIN CITIES    MOCLDY    72  65  78 S10       29.77F
ST PAUL        CLOUDY    71  67  87 S5        29.77S
CRYSTAL        MOCLDY    71  63  75 S6        29.75S
BLAINE         MOCLDY    72  64  78 S5        29.76F
LAKEVILLE      CLOUDY    68  68 100 S6        29.78F
EDEN PRAIRIE   MOCLDY    72  66  81 S7        29.77F
SOUTH ST PAUL  MOCLDY    71  65  83 S6        29.78S
LAKE ELMO      FAIR      70  64  83 S7        29.78R
$$
MNZ001>005-007-008-013>017-022>024-027-028-220900-
   Northwest Minnesota

CITY           SKY/WX    TMP DP  RH WIND       PRES   REMARKS
BEMIDJI        CLOUDY    64  63  99 SE5       29.79S
HALLOCK        TSTM      66  64  94 N10G16    29.79R
ROSEAU         CLOUDY    63  57  82 NE6       29.80R
WARROAD        LGT RAIN  64  61  88 S3        29.81R
THIEF RVR FALL MOCLDY    65  64  97 NE6       29.82R
CROOKSTON      TSTM      66  66 100 S9        29.78F
FOSSTON        CLOUDY    63  61  94 N3        29.80R
DETROIT LAKES  CLOUDY    68  64  88 SW5         N/A
MOORHEAD       CLOUDY    70  64  83 S7        29.76S
PARK RAPIDS    PTCLDY    66  63  90 CALM      29.78S
MAHNOMEN       FAIR      65  65  97 N3        29.77R
$$
MNZ006-009>011-018-025>026-220900-
   North Central Minnesota

CITY           SKY/WX    TMP DP  RH WIND       PRES   REMARKS
BAUDETTE       CLOUDY    60  59  96 E3        29.80R
FLAG ISLAND    CLOUDY    66  57  72 E9        29.77F
INTL FALLS     PTCLDY    54  53  97 CALM      29.81S
BIG FORK       CLOUDY    59  57  94 CALM      29.80F FOG
LONGVILLE      CLOUDY    63  63 100 CALM      29.78F FOG
GRAND RAPIDS   CLOUDY    64  63  96 CALM      29.81F FOG
CRANE LAKE     PTCLDY    52  52 100 CALM      29.83R FOG
ORR              N/A     55  54  94 CALM      29.79S FOG
COOK           PTCLDY    55  55 100 CALM      29.83R FOG
WALKER         FAIR      62  62  97 CALM      29.78S
$$
MNZ012-019>021-037-220900-
   Northeast Minnesota

CITY           SKY/WX    TMP DP  RH WIND       PRES   REMARKS
DULUTH         FOG       61  61 100 CALM      29.81R VSB 3/4
ELY            PTCLDY    55  54  94 CALM      29.83R
HIBBING        CLOUDY    55  55 100 CALM      29.81S FOG
EVELETH        CLOUDY    60  57  91 CALM      29.82S
DULUTH HARBOR  CLOUDY    63  61  94 E10       29.81R
TWO HARBORS      N/A     59  54  82 CALM      29.80R HAZE
SILVER BAY     CLEAR     59  55  88 CALM      29.80R
GRAND MARAIS     N/A     68  51  54 NE8       29.79S
G MARAIS ARPRT CLEAR     59  46  63 NE7       29.85R
$$
MNZ029>031-032-039>041-046>048-054>057-064-220900-
   West Central Minnesota

CITY           SKY/WX    TMP DP  RH WIND       PRES   REMARKS
FERGUS FALLS   CLOUDY    68  66  94 S5        29.78S
WHEATON        LGT RAIN  72  66  83 S18G25    29.75F
MORRIS         CLOUDY    72  66  83 SW12      29.78S
ALEXANDRIA     CLOUDY    68  66  93 S6        29.81F
ELBOW LAKE     FAIR      67  66  97 S7        29.79F
WADENA         CLOUDY    64  64 100 SW5       29.77F
GLENWOOD       CLOUDY    66  66 100 CALM      29.80F
APPLETON       CLOUDY    73  68  83 CALM      29.80R
BENSON         CLOUDY    72  68  88 SW12      29.79R
ORTONVILLE     CLOUDY    73  68  83 CALM      29.82S
MADISON        CLOUDY    75  73  94 CALM      29.81R
WILLMAR        LGT RAIN  72  70  94 S8G17     29.77F
$$
MNZ033>034-036-042>043-049>051-058-059-220900-
   Central Minnesota

CITY           SKY/WX    TMP DP  RH WIND       PRES   REMARKS
ST CLOUD       CLOUDY    67  66  97 SW5       29.77F
SAUK CENTRE    FAIR      66  65  97 CALM      29.79F
PAYNESVILLE    CLOUDY    71  67  88 S8        29.80S
AITKIN         FOG       61  59  94 CALM      29.77F VSB 1/4
PINE RIVER     CLOUDY    61  61 100 CALM      29.82F FOG
BRAINERD       FOG       62  61  96 CALM      29.78F VSB 1/2
STAPLES        CLOUDY    64  63  94 CALM      29.77F
LONG PRAIRIE   FAIR      64  64 100 S5        29.80F
LITTLE FALLS   CLOUDY    64  63  94 SW5       29.77F
LITCHFIELD     CLOUDY    73  70  88 CALM      29.80F
BUFFALO        CLOUDY    70  64  80 S6        29.77F
MAPLE LAKE     CLOUDY    70  66  88 S3        29.77F
HUTCHINSON     CLOUDY    71  69  95 SE3       29.81F
$$
MNZ037-044-045-052-053-220900-
   East Central Minnesota

CITY           SKY/WX    TMP DP  RH WIND       PRES   REMARKS
PRINCETON      MOCLDY    66  64  94 CALM      29.77F
MORA           CLOUDY    63  63 100 CALM      29.81S
CAMBRIDGE      CLOUDY    66  64  94 CALM      29.78S
RUSH CITY      CLOUDY    64  62  94 CALM      29.78F
MOOSE LAKE     CLOUDY    61  59  94 CALM      29.79S
HINCKLEY       FAIR      63  63 100 CALM      29.80R
CLOQUET        FOG       63  61  94 CALM      29.80S VSB 1/2
MCGREGOR       CLOUDY    63  61  94 CALM      29.80S
$$
MNZ071>073-080-081-089-090-097-098-220900-
   Southwest Minnesota

CITY           SKY/WX    TMP DP  RH WIND       PRES   REMARKS
MONTEVIDEO     RAIN      72  70  94 S23G32    29.72F
GRANITE FALLS  LGT RAIN  72  70  93 S14       29.87R
CANBY          CLOUDY    72  70  92 SE9       29.79F
MARSHALL       HVY RAIN  71  69  93 SW8       29.92R
REDWOOD FALLS  CLOUDY    71  67  87 SW7       29.85R
OLIVIA         CLOUDY    70  66  88 SW6       29.84R
PIPESTONE      CLOUDY    68  66  94 N17G33    29.97R
WINDOM         CLOUDY    70  68  94 CALM      29.85R
WORTHINGTON    CLOUDY    71  70  96 E7        29.88R
JACKSON        CLOUDY    72  70  94 CALM      29.84F FOG
SLAYTON        CLOUDY    69  66  92 E5        29.86R
$$
MNZ065>067-074>077-082>085-091>093-220900-
   South Central Minnesota

CITY           SKY/WX    TMP DP  RH WIND       PRES   REMARKS
MANKATO        PTCLDY    69  67  93 SE8       29.82S
NEW ULM        CLOUDY    70  66  88 SE3       29.84R
ST JAMES       PTCLDY    70  68  94 E5        29.84R
FAIRMONT       CLOUDY    71  69  93 E6        29.82F
GLENCOE        CLOUDY    71  70  96 S3        29.80F
FARIBAULT      CLOUDY    70  66  88 SE7       29.82R
OWATONNA       PTCLDY    70  66  88 SE12      29.81F
WASECA         CLOUDY    68  64  88 E6        29.82F
ALBERT LEA     CLOUDY    70  68  94 E12       29.82F
$$
MNZ078>079-086>088-094>096-220900-
   Southeast Minnesota

CITY           SKY/WX    TMP DP  RH WIND       PRES   REMARKS
ROCHESTER      CLOUDY    68  68 100 SE10      29.82F FOG
RED WING       PTCLDY    72  64  78 SW6       29.76F
STANTON        CLOUDY    71  66  84 SE9       29.78S
DODGE CENTER   CLOUDY    68  66  94 SE14      29.81F FOG
WINONA         CLOUDY    70  66  88 CALM      29.79F
AUSTIN         CLOUDY    70  66  88 E7        29.82F FOG
PRESTON        FOG       68  67  95 E5        29.84F VSB 3/4
$$
ABBREVIATIONS USED IN REMARKS
   TC - TEMPERATURES IN CELSIUS
  WCI - WIND CHILL INDEX
   HX - HEAT INDEX
  VSB - VISIBILITY
$$




USA.gov is the U.S. government's official web portal to all federal, state and local government web resources and services.